This is the latest recevied weather packets stored in our database for station/object EA7RX-4. If no packets are shown the sender has not sent any weather packets the latest 10 day(s).
| Time | Temp. | Humidity | Pressure | Rain* | Wind** | Luminosity | Snow |
|---|---|---|---|---|---|---|---|
| 1788138003 | 21.67° C | 40% | 1018.2 hPa | 0 mm | - | 0 W/m² | - |
| 1788137403 | 21.67° C | 38% | 1018.5 hPa | 0 mm | - | 0 W/m² | - |
| 1788136803 | 22.22° C | 38% | 1018.3 hPa | 0 mm | - | 0 W/m² | - |
| 1788136203 | 22.22° C | 40% | 1018.2 hPa | 0 mm | - | 0 W/m² | - |
| 1788135603 | 22.22° C | 40% | 1018.1 hPa | 0 mm | - | 0 W/m² | - |
| 1788135003 | 22.22° C | 40% | 1018.2 hPa | 0 mm | - | 0 W/m² | - |
| 1788134403 | 22.78° C | 40% | 1018.1 hPa | 0 mm | - | 0 W/m² | - |
| 1788133803 | 23.33° C | 39% | 1018 hPa | 0 mm | - | 0 W/m² | - |
| 1788133203 | 23.33° C | 38% | 1018 hPa | 0 mm | - | 0 W/m² | - |
| 1788132603 | 23.33° C | 38% | 1018.3 hPa | 0 mm | - | 0 W/m² | - |
| 1788132003 | 23.89° C | 38% | 1018.2 hPa | 0 mm | - | 0 W/m² | - |
| 1788131403 | 23.33° C | 39% | 1018.2 hPa | 0 mm | - | 0 W/m² | - |
| 1788130803 | 23.89° C | 39% | 1018.1 hPa | 0 mm | - | 0 W/m² | - |
| 1788130203 | 23.89° C | 39% | 1018.1 hPa | 0 mm | - | 0 W/m² | - |
| 1788129603 | 23.89° C | 39% | 1018.2 hPa | 0 mm | - | 0 W/m² | - |
| 1788129003 | 24.44° C | 38% | 1017.9 hPa | 0 mm | - | 0 W/m² | - |
| 1788128403 | 24.44° C | 37% | 1018.1 hPa | 0 mm | - | 0 W/m² | - |
| 1788127803 | 24.44° C | 36% | 1018 hPa | 0 mm | - | 0 W/m² | - |
| 1788127203 | 24.44° C | 36% | 1018.1 hPa | 0 mm | - | 0 W/m² | - |
| 1788126603 | 25° C | 34% | 1018.1 hPa | 0 mm | - | 0 W/m² | - |
| 1788126003 | 24.44° C | 35% | 1018.1 hPa | 0 mm | - | 0 W/m² | - |
| 1788125403 | 24.44° C | 34% | 1018 hPa | 0 mm | - | 0 W/m² | - |
| 1788124803 | 24.44° C | 34% | 1017.8 hPa | 0 mm | - | 0 W/m² | - |
| 1788124203 | 25.56° C | 33% | 1018 hPa | 0 mm | - | 0 W/m² | - |
| 1788123603 | 25.56° C | 32% | 1017.7 hPa | 0 mm | - | 0 W/m² | - |
* Rain latest hour (hover to see other rain measurements)
** Current wind speed in m/s (hover to see current wind gust speed)